QPF
0.00 0.00 0.01 0.01 0.00 0.00 0.00 0.00 0.01 0.01 0.02 0.02 0.02 0.01 0.01 0.02 0.03 0.04 0.03 0.03 0.04 0.04 0.04 0.05 0.05 0.06 0.06 0.06 0.05 0.06 0.08 0.08 0.07 0.08 0.07 0.07 0.07 0.08 0.08 0.06 0.05 0.04 0.05
0.00 0.00 0.00 0.00 0.00 0.00 0.00 0.01 0.01 0.01 0.02 0.02 0.01 0.00 0.01 0.02 0.02 0.02 0.03 0.05 0.06 0.05 0.04 0.04 0.04 0.05 0.05 0.06 0.05 0.04 0.04 0.04 0.05 0.06 0.06 0.05 0.05 0.05 0.06 0.05 0.04 0.04 0.05
0.00 0.00 0.00 0.00 0.01 0.01 0.01 0.02 0.02 0.03 0.03 0.02 0.01 0.00 0.01 0.02 0.03 0.04 0.05 0.06 0.06 0.05 0.04 0.04 0.03 0.04 0.03 0.04 0.03 0.03 0.03 0.02 0.03 0.04 0.03 0.04 0.04 0.04 0.05 0.04 0.04 0.04 0.04
0.00 0.00 0.01 0.00 0.01 0.01 0.02 0.02 0.03 0.03 0.03 0.02 0.02 0.01 0.02 0.03 0.03 0.04 0.04 0.04 0.04 0.03 0.03 0.03 0.03 0.03 0.03 0.03 0.02 0.02 0.02 0.02 0.03 0.03 0.03 0.04 0.04 0.05 0.05 0.04 0.03 0.03 0.02
0.01 0.01 0.01 0.01 0.02 0.02 0.03 0.04 0.04 0.03 0.03 0.03 0.03 0.03 0.03 0.03 0.03 0.03 0.03 0.03 0.03 0.02 0.02 0.02 0.03 0.02 0.02 0.02 0.03 0.03 0.02 0.02 0.02 0.02 0.03 0.03 0.04 0.04 0.04 0.03 0.03 0.03 0.03
0.01 0.01 0.02 0.02 0.03 0.04 0.04 0.04 0.03 0.04 0.04 0.03 0.03 0.03 0.03 0.03 0.04 0.04 0.03 0.02 0.02 0.02 0.02 0.02 0.02 0.02 0.01 0.02 0.03 0.03 0.02 0.02 0.01 0.02 0.02 0.02 0.02 0.02 0.02 0.03 0.03 0.04 0.05
0.01 0.02 0.02 0.01 0.03 0.03 0.04 0.04 0.03 0.03 0.03 0.04 0.04 0.03 0.03 0.04 0.05 0.04 0.04 0.02 0.02 0.02 0.02 0.02 0.01 0.01 0.01 0.01 0.01 0.01 0.01 0.01 0.01 0.01 0.01 0.01 0.01 0.01 0.03 0.04 0.04 0.04 0.04
0.02 0.03 0.02 0.01 0.01 0.02 0.02 0.02 0.02 0.02 0.02 0.02 0.03 0.03 0.03 0.04 0.05 0.04 0.03 0.02 0.01 0.01 0.01 0.00 0.00 0.00 0.00 0.01 0.01 0.01 0.01 0.01 0.01 0.01 0.01 0.01 0.01 0.01 0.02 0.02 0.02 0.02 0.02
0.03 0.04 0.03 0.02 0.02 0.02 0.02 0.01 0.01 0.01 0.01 0.01 0.02 0.02 0.02 0.02 0.02 0.02 0.01 0.01 0.01 0.00 0.00 0.01 0.01 0.00 0.01 0.01 0.01 0.01 0.01 0.01 0.01 0.01 0.01 0.01 0.01 0.01 0.01 0.01 0.02 0.03 0.02
0.04 0.05 0.04 0.03 0.03 0.02 0.02 0.01 0.01 0.01 0.01 0.01 0.01 0.01 0.01 0.01 0.01 0.01 0.01 0.01 0.01 0.01 0.01 0.01 0.00 0.00 0.00 0.00 0.00 0.00 0.01 0.01 0.01 0.01 0.01 0.01 0.01 0.01 0.01 0.01 0.01 0.02 0.02
0.08 0.06 0.04 0.03 0.03 0.02 0.02 0.02 0.02 0.02 0.02 0.02 0.01 0.02 0.02 0.02 0.02 0.02 0.02 0.02 0.02 0.01 0.01 0.01 0.01 0.00 0.00 0.00 0.00 0.00 0.01 0.01 0.01 0.01 0.01 0.00 0.00 0.00 0.00 0.00 0.01 0.02 0.02
0.08 0.06 0.05 0.05 0.04 0.04 0.05 0.05 0.05 0.05 0.02 0.02 0.01 0.02 0.02 0.02 0.02 0.02 0.02 0.01 0.01 0.01 0.01 0.01 0.01 0.00 0.00 0.00 0.00 0.00 0.00 0.00 0.00 0.00 0.00 0.00 0.00 0.00 0.00 0.01 0.01 0.01 0.01
0.07 0.06 0.05 0.04 0.04 0.04 0.05 0.04 0.04 0.04 0.02 0.02 0.02 0.02 0.02 0.02 0.03 0.03 0.02 0.01 0.01 0.01 0.01 0.01 0.01 0.01 0.00 0.00 0.00 0.00 0.00 0.00 0.00 0.00 0.00 0.00 0.00 0.00 0.00 0.01 0.01 0.01 0.01
0.07 0.06 0.03 0.03 0.03 0.03 0.03 0.03 0.03 0.03 0.03 0.02 0.02 0.01 0.01 0.02 0.02 0.02 0.02 0.01 0.01 0.01 0.01 0.01 0.01 0.01 0.00 0.00 0.00 0.00 0.00 0.00 0.00 0.00 0.00 0.00 0.00 0.00 0.00 0.00 0.00 0.00 0.00
0.08 0.07 0.05 0.03 0.02 0.02 0.02 0.02 0.02 0.02 0.02 0.01 0.01 0.01 0.01 0.02 0.02 0.02 0.01 0.01 0.01 0.00 0.01 0.01 0.01 0.01 0.01 0.01 0.01 0.01 0.00 0.00 0.00 0.00 0.00 0.00 0.00 0.00 0.00 0.00 0.00 0.00 0.00
0.06 0.06 0.03 0.02 0.01 0.01 0.01 0.01 0.01 0.01 0.01 0.01 0.01 0.01 0.01 0.02 0.01 0.01 0.00 0.00 0.00 0.00 0.00 0.00 0.01 0.01 0.01 0.02 0.01 0.01 0.00 0.00 0.00 0.00 0.00 0.00 0.00 0.00 0.00 0.00 0.00 0.00 0.00
0.03 0.02 0.01 0.01 0.01 0.01 0.01 0.01 0.01 0.01 0.01 0.01 0.01 0.01 0.01 0.01 0.01 0.01 0.00 0.00 0.00 0.01 0.00 0.00 0.01 0.01 0.01 0.01 0.01 0.01 0.01 0.00 0.00 0.00 0.00 0.00 0.00 0.00 0.00 0.00 0.00 0.00 0.00
0.05 0.04 0.03 0.02 0.02 0.02 0.02 0.02 0.02 0.02 0.02 0.01 0.01 0.01 0.01 0.01 0.01 0.01 0.01 0.01 0.01 0.01 0.00 0.00 0.00 0.01 0.00 0.00 0.00 0.00 0.00 0.00 0.00 0.00 0.00 0.00 0.00 0.00 0.00 0.00 0.00 0.00 0.00
0.05 0.05 0.05 0.05 0.06 0.05 0.04 0.04 0.03 0.03 0.03 0.02 0.01 0.01 0.01 0.01 0.01 0.01 0.01 0.00 0.00 0.00 0.00 0.00 0.00 0.00 0.00 0.00 0.00 0.00 0.00 0.00 0.00 0.00 0.00 0.00 0.00 0.00 0.00 0.00 0.00 0.00 0.00
0.05 0.05 0.06 0.05 0.06 0.05 0.04 0.04 0.03 0.03 0.02 0.01 0.01 0.01 0.01 0.01 0.00 0.00 0.00 0.00 0.00 0.00 0.00 0.00 0.00 0.00 0.00 0.00 0.01 0.01 0.01 0.01 0.01 0.00 0.00 0.00 0.00 0.00 0.00 0.00 0.00 0.00 0.00
0.05 0.05 0.04 0.04 0.04 0.05 0.05 0.04 0.03 0.02 0.02 0.01 0.01 0.01 0.02 0.01 0.01 0.01 0.01 0.01 0.01 0.00 0.00 0.00 0.00 0.00 0.00 0.01 0.01 0.01 0.01 0.01 0.01 0.01 0.01 0.01 0.01 0.01 0.00 0.00 0.00 0.00 0.00
0.04 0.03 0.03 0.03 0.03 0.03 0.03 0.02 0.02 0.02 0.02 0.01 0.02 0.02 0.02 0.01 0.02 0.02 0.01 0.01 0.01 0.01 0.01 0.01 0.01 0.00 0.01 0.01 0.01 0.01 0.01 0.02 0.02 0.02 0.01 0.01 0.01 0.01 0.01 0.01 0.01 0.01 0.01
0.03 0.02 0.03 0.03 0.03 0.03 0.03 0.03 0.02 0.02 0.02 0.02 0.02 0.02 0.02 0.02 0.02 0.02 0.02 0.02 0.02 0.01 0.01 0.01 0.01 0.01 0.01 0.01 0.02 0.02 0.02 0.02 0.02 0.02 0.01 0.01 0.01 0.01 0.01 0.01 0.01 0.01 0.01
0.02 0.02 0.03 0.04 0.05 0.05 0.04 0.04 0.04 0.03 0.03 0.02 0.02 0.02 0.02 0.02 0.02 0.02 0.01 0.01 0.01 0.01 0.01 0.01 0.01 0.01 0.01 0.01 0.02 0.02 0.02 0.02 0.02 0.02 0.02 0.02 0.01 0.02 0.02 0.02 0.02 0.02 0.02
0.01 0.01 0.01 0.02 0.03 0.03 0.03 0.03 0.02 0.02 0.02 0.02 0.02 0.02 0.02 0.02 0.02 0.02 0.02 0.01 0.01 0.01 0.01 0.01 0.01 0.01 0.01 0.01 0.01 0.01 0.02 0.02 0.01 0.01 0.02 0.02 0.02 0.02 0.02 0.02 0.02 0.02 0.02
0.00 0.00 0.01 0.01 0.02 0.02 0.03 0.03 0.03 0.04 0.04 0.04 0.04 0.03 0.02 0.02 0.01 0.01 0.01 0.01 0.01 0.01 0.01 0.01 0.01 0.01 0.01 0.01 0.01 0.01 0.01 0.01 0.01 0.02 0.01 0.02 0.02 0.02 0.02 0.02 0.01 0.01 0.01
MSLP
1015.22 1015.36 1015.48 1015.56 1015.56 1015.47 1015.32 1015.15 1015.01 1014.93 1014.95 1015.09 1015.33 1015.65 1016.01 1016.37 1016.69 1016.96 1017.17 1017.32 1017.44 1017.53 1017.61 1017.70 1017.81 1017.95 1018.13 1018.36 1018.66 1019.05 1019.54 1020.14 1020.84 1021.60 1022.39 1023.14 1023.82 1024.36 1024.74 1024.95 1025.01 1024.94 1024.81
1015.31 1015.44 1015.56 1015.63 1015.62 1015.53 1015.39 1015.23 1015.09 1015.02 1015.04 1015.17 1015.40 1015.71 1016.07 1016.43 1016.78 1017.09 1017.34 1017.55 1017.72 1017.85 1017.94 1018.02 1018.08 1018.15 1018.23 1018.36 1018.57 1018.88 1019.31 1019.89 1020.58 1021.38 1022.24 1023.08 1023.86 1024.51 1024.99 1025.30 1025.45 1025.46 1025.38
1015.34 1015.51 1015.66 1015.75 1015.76 1015.69 1015.56 1015.42 1015.29 1015.23 1015.25 1015.36 1015.56 1015.84 1016.16 1016.50 1016.84 1017.16 1017.45 1017.70 1017.91 1018.08 1018.21 1018.30 1018.36 1018.39 1018.42 1018.49 1018.62 1018.85 1019.22 1019.75 1020.42 1021.22 1022.09 1022.99 1023.83 1024.56 1025.15 1025.55 1025.79 1025.89 1025.88
1015.31 1015.56 1015.77 1015.90 1015.94 1015.91 1015.82 1015.70 1015.60 1015.54 1015.55 1015.64 1015.80 1016.02 1016.29 1016.58 1016.87 1017.17 1017.46 1017.73 1017.98 1018.19 1018.37 1018.50 1018.58 1018.62 1018.64 1018.67 1018.75 1018.92 1019.22 1019.68 1020.30 1021.05 1021.91 1022.81 1023.69 1024.48 1025.14 1025.63 1025.97 1026.16 1026.24
1015.24 1015.58 1015.86 1016.05 1016.15 1016.16 1016.11 1016.03 1015.96 1015.92 1015.93 1015.99 1016.10 1016.26 1016.45 1016.66 1016.89 1017.14 1017.39 1017.66 1017.92 1018.18 1018.41 1018.59 1018.72 1018.80 1018.83 1018.85 1018.90 1019.02 1019.26 1019.64 1020.17 1020.85 1021.65 1022.52 1023.39 1024.20 1024.91 1025.49 1025.92 1026.21 1026.39
1015.14 1015.58 1015.93 1016.17 1016.32 1016.38 1016.38 1016.36 1016.32 1016.31 1016.33 1016.37 1016.45 1016.54 1016.65 1016.78 1016.93 1017.10 1017.30 1017.54 1017.81 1018.09 1018.36 1018.60 1018.79 1018.92 1018.99 1019.02 1019.05 1019.13 1019.29 1019.58 1020.01 1020.59 1021.30 1022.10 1022.92 1023.73 1024.47 1025.10 1025.60 1025.99 1026.26
1015.02 1015.53 1015.93 1016.23 1016.42 1016.53 1016.58 1016.61 1016.63 1016.66 1016.70 1016.75 1016.80 1016.85 1016.90 1016.94 1017.01 1017.10 1017.24 1017.44 1017.69 1017.98 1018.28 1018.57 1018.81 1018.99 1019.10 1019.15 1019.17 1019.21 1019.30 1019.50 1019.82 1020.28 1020.88 1021.57 1022.33 1023.09 1023.82 1024.48 1025.05 1025.50 1025.86
1014.89 1015.43 1015.86 1016.17 1016.40 1016.54 1016.65 1016.73 1016.82 1016.90 1016.99 1017.07 1017.13 1017.16 1017.17 1017.16 1017.16 1017.18 1017.26 1017.41 1017.64 1017.92 1018.24 1018.55 1018.83 1019.05 1019.19 1019.26 1019.28 1019.28 1019.31 1019.41 1019.62 1019.96 1020.44 1021.02 1021.68 1022.38 1023.08 1023.73 1024.32 1024.82 1025.24
1014.74 1015.28 1015.69 1016.01 1016.23 1016.41 1016.56 1016.70 1016.85 1017.01 1017.17 1017.30 1017.39 1017.43 1017.43 1017.39 1017.35 1017.33 1017.37 1017.47 1017.66 1017.93 1018.24 1018.56 1018.86 1019.10 1019.27 1019.34 1019.36 1019.33 1019.32 1019.35 1019.47 1019.70 1020.05 1020.53 1021.09 1021.70 1022.34 1022.96 1023.53 1024.05 1024.49
1014.60 1015.08 1015.46 1015.74 1015.95 1016.14 1016.32 1016.51 1016.73 1016.96 1017.19 1017.38 1017.53 1017.61 1017.62 1017.59 1017.54 1017.50 1017.50 1017.58 1017.74 1017.97 1018.27 1018.58 1018.88 1019.13 1019.30 1019.39 1019.41 1019.37 1019.33 1019.31 1019.37 1019.52 1019.79 1020.16 1020.63 1021.16 1021.71 1022.27 1022.80 1023.29 1023.72
1014.47 1014.87 1015.17 1015.40 1015.59 1015.77 1015.97 1016.20 1016.47 1016.76 1017.04 1017.30 1017.50 1017.63 1017.68 1017.68 1017.64 1017.60 1017.59 1017.65 1017.79 1018.00 1018.26 1018.56 1018.84 1019.09 1019.27 1019.36 1019.39 1019.36 1019.32 1019.29 1019.33 1019.44 1019.64 1019.95 1020.34 1020.78 1021.26 1021.74 1022.20 1022.63 1023.02
1014.37 1014.67 1014.89 1015.05 1015.20 1015.36 1015.55 1015.80 1016.09 1016.41 1016.74 1017.04 1017.28 1017.45 1017.55 1017.57 1017.56 1017.54 1017.54 1017.60 1017.72 1017.91 1018.15 1018.42 1018.69 1018.92 1019.09 1019.20 1019.25 1019.25 1019.24 1019.24 1019.29 1019.40 1019.59 1019.86 1020.20 1020.57 1020.97 1021.37 1021.75 1022.10 1022.42
1014.30 1014.50 1014.64 1014.74 1014.83 1014.95 1015.13 1015.35 1015.64 1015.96 1016.29 1016.60 1016.85 1017.05 1017.17 1017.23 1017.26 1017.27 1017.29 1017.35 1017.47 1017.65 1017.86 1018.11 1018.35 1018.57 1018.74 1018.87 1018.95 1018.99 1019.03 1019.09 1019.18 1019.33 1019.54 1019.80 1020.11 1020.45 1020.79 1021.11 1021.41 1021.68 1021.91
1014.27 1014.38 1014.44 1014.48 1014.52 1014.60 1014.73 1014.91 1015.15 1015.43 1015.72 1016.00 1016.24 1016.43 1016.57 1016.65 1016.70 1016.75 1016.80 1016.88 1017.01 1017.18 1017.38 1017.60 1017.82 1018.02 1018.20 1018.33 1018.45 1018.54 1018.64 1018.76 1018.92 1019.13 1019.38 1019.67 1019.98 1020.29 1020.59 1020.85 1021.09 1021.28 1021.45
1014.24 1014.29 1014.30 1014.29 1014.29 1014.32 1014.39 1014.50 1014.67 1014.86 1015.08 1015.29 1015.48 1015.64 1015.77 1015.87 1015.94 1016.02 1016.11 1016.22 1016.36 1016.53 1016.72 1016.92 1017.12 1017.30 1017.47 1017.61 1017.75 1017.89 1018.04 1018.23 1018.46 1018.72 1019.02 1019.34 1019.67 1019.98 1020.26 1020.49 1020.68 1020.83 1020.95
1014.22 1014.23 1014.21 1014.17 1014.13 1014.10 1014.11 1014.14 1014.21 1014.31 1014.42 1014.54 1014.66 1014.77 1014.87 1014.97 1015.06 1015.17 1015.29 1015.43 1015.59 1015.77 1015.95 1016.14 1016.31 1016.46 1016.61 1016.75 1016.89 1017.05 1017.24 1017.47 1017.74 1018.06 1018.40 1018.76 1019.10 1019.42 1019.70 1019.93 1020.11 1020.24 1020.35
1014.17 1014.17 1014.14 1014.08 1014.02 1013.95 1013.89 1013.85 1013.82 1013.81 1013.81 1013.84 1013.87 1013.93 1013.99 1014.08 1014.18 1014.31 1014.46 1014.62 1014.80 1014.98 1015.15 1015.31 1015.45 1015.57 1015.69 1015.80 1015.92 1016.07 1016.27 1016.51 1016.81 1017.15 1017.51 1017.89 1018.26 1018.59 1018.89 1019.14 1019.33 1019.49 1019.63
1014.11 1014.11 1014.09 1014.03 1013.96 1013.86 1013.75 1013.63 1013.52 1013.41 1013.32 1013.25 1013.21 1013.21 1013.24 1013.30 1013.41 1013.54 1013.70 1013.88 1014.06 1014.23 1014.38 1014.50 1014.60 1014.68 1014.74 1014.81 1014.89 1015.02 1015.19 1015.42 1015.70 1016.03 1016.40 1016.79 1017.17 1017.53 1017.85 1018.13 1018.38 1018.59 1018.79
1014.05 1014.07 1014.06 1014.02 1013.94 1013.83 1013.69 1013.52 1013.34 1013.17 1013.00 1012.86 1012.76 1012.70 1012.69 1012.73 1012.82 1012.94 1013.09 1013.25 1013.41 1013.55 1013.66 1013.73 1013.77 1013.79 1013.79 1013.80 1013.83 1013.91 1014.04 1014.23 1014.49 1014.80 1015.15 1015.53 1015.92 1016.30 1016.66 1016.99 1017.31 1017.60 1017.88
1014.04 1014.08 1014.09 1014.07 1014.01 1013.90 1013.74 1013.55 1013.34 1013.12 1012.91 1012.71 1012.56 1012.45 1012.40 1012.40 1012.44 1012.52 1012.63 1012.74 1012.84 1012.91 1012.96 1012.96 1012.93 1012.88 1012.81 1012.76 1012.74 1012.76 1012.85 1013.00 1013.22 1013.51 1013.84 1014.21 1014.61 1015.02 1015.42 1015.82 1016.21 1016.59 1016.97
1014.11 1014.17 1014.21 1014.22 1014.17 1014.08 1013.93 1013.75 1013.53 1013.29 1013.05 1012.82 1012.63 1012.47 1012.36 1012.29 1012.26 1012.26 1012.28 1012.30 1012.30 1012.28 1012.23 1012.14 1012.03 1011.90 1011.78 1011.67 1011.61 1011.59 1011.65 1011.77 1011.97 1012.24 1012.57 1012.94 1013.35 1013.78 1014.24 1014.70 1015.17 1015.65 1016.13
1014.30 1014.38 1014.44 1014.48 1014.46 1014.39 1014.28 1014.11 1013.90 1013.67 1013.42 1013.17 1012.93 1012.72 1012.53 1012.37 1012.24 1012.12 1012.00 1011.88 1011.75 1011.59 1011.42 1011.23 1011.03 1010.83 1010.66 1010.52 1010.43 1010.41 1010.46 1010.58 1010.78 1011.06 1011.40 1011.79 1012.22 1012.69 1013.19 1013.72 1014.26 1014.82 1015.38
1014.61 1014.71 1014.79 1014.85 1014.87 1014.83 1014.75 1014.61 1014.43 1014.21 1013.96 1013.69 1013.41 1013.13 1012.85 1012.57 1012.30 1012.02 1011.74 1011.45 1011.15 1010.84 1010.53 1010.22 1009.94 1009.68 1009.47 1009.32 1009.24 1009.24 1009.32 1009.48 1009.72 1010.03 1010.40 1010.82 1011.30 1011.81 1012.35 1012.93 1013.53 1014.14 1014.76
1015.01 1015.12 1015.22 1015.30 1015.35 1015.35 1015.30 1015.20 1015.05 1014.85 1014.60 1014.31 1013.98 1013.62 1013.24 1012.83 1012.39 1011.94 1011.48 1011.00 1010.52 1010.05 1009.61 1009.19 1008.83 1008.53 1008.31 1008.17 1008.13 1008.18 1008.32 1008.54 1008.84 1009.20 1009.63 1010.10 1010.61 1011.17 1011.75 1012.35 1012.98 1013.62 1014.27
1015.43 1015.55 1015.67 1015.77 1015.84 1015.87 1015.85 1015.79 1015.66 1015.47 1015.22 1014.91 1014.54 1014.11 1013.62 1013.08 1012.50 1011.88 1011.24 1010.59 1009.95 1009.34 1008.77 1008.27 1007.85 1007.53 1007.31 1007.21 1007.22 1007.33 1007.55 1007.85 1008.22 1008.65 1009.13 1009.65 1010.20 1010.77 1011.37 1011.99 1012.62 1013.26 1013.90
1015.81 1015.94 1016.06 1016.17 1016.26 1016.31 1016.32 1016.28 1016.17 1016.00 1015.75 1015.42 1015.02 1014.52 1013.96 1013.32 1012.62 1011.87 1011.09 1010.31 1009.55 1008.83 1008.17 1007.61 1007.16 1006.84 1006.64 1006.58 1006.65 1006.83 1007.12 1007.49 1007.93 1008.41 1008.93 1009.49 1010.05 1010.64 1011.23 1011.83 1012.44 1013.05 1013.64
Thickness
5781 5777 5772 5768 5765 5761 5757 5754 5751 5748 5746 5744 5742 5739 5737 5735 5733 5731 5728 5727 5725 5724 5723 5722 5721 5721 5718 5717 5715 5712 5708 5704 5695 5691 5689 5687 5683 5679 5675 5672 5669 5666 5663
5783 5777 5773 5768 5764 5759 5756 5753 5750 5747 5744 5741 5739 5736 5734 5731 5729 5727 5724 5722 5720 5718 5717 5717 5715 5715 5713 5711 5708 5706 5703 5700 5694 5686 5682 5679 5675 5672 5668 5665 5661 5658 5655
5783 5777 5771 5766 5762 5757 5754 5750 5747 5744 5741 5738 5735 5732 5729 5727 5725 5723 5720 5717 5715 5714 5712 5711 5709 5709 5706 5704 5702 5699 5696 5694 5689 5683 5676 5672 5668 5665 5661 5657 5653 5650 5647
5782 5775 5770 5765 5761 5756 5752 5748 5744 5740 5737 5734 5731 5728 5725 5723 5721 5718 5715 5712 5710 5708 5707 5705 5704 5702 5699 5698 5695 5692 5689 5685 5681 5676 5670 5665 5661 5658 5654 5649 5644 5641 5638
5779 5773 5768 5764 5760 5755 5750 5745 5740 5737 5733 5729 5726 5723 5721 5718 5716 5713 5710 5707 5704 5702 5700 5699 5698 5697 5694 5692 5689 5685 5682 5678 5673 5668 5662 5658 5654 5650 5646 5642 5637 5633 5630
5777 5771 5766 5761 5756 5751 5746 5740 5736 5732 5728 5725 5721 5718 5715 5713 5710 5708 5705 5701 5698 5695 5693 5691 5690 5688 5687 5685 5683 5680 5677 5671 5666 5661 5655 5651 5647 5644 5640 5636 5630 5625 5621
5774 5769 5763 5758 5752 5747 5742 5736 5732 5727 5723 5719 5716 5712 5709 5706 5705 5702 5699 5695 5692 5688 5686 5683 5682 5680 5678 5676 5673 5671 5668 5665 5662 5657 5650 5645 5641 5638 5634 5629 5625 5620 5615
5770 5765 5760 5755 5750 5744 5739 5733 5728 5723 5719 5714 5710 5706 5703 5701 5699 5696 5693 5689 5685 5682 5679 5676 5673 5671 5670 5667 5664 5661 5657 5655 5652 5649 5645 5641 5638 5633 5629 5624 5619 5613 5608
5764 5760 5756 5751 5745 5740 5734 5729 5724 5719 5714 5709 5705 5701 5697 5694 5692 5690 5687 5682 5677 5674 5671 5669 5666 5663 5661 5659 5655 5651 5648 5645 5643 5640 5637 5633 5629 5625 5621 5616 5610 5604 5598
5760 5755 5751 5746 5741 5735 5730 5725 5720 5715 5709 5704 5699 5695 5691 5687 5685 5683 5680 5675 5669 5666 5663 5660 5658 5655 5653 5650 5646 5642 5638 5635 5633 5630 5626 5623 5619 5616 5612 5608 5603 5596 5590
5756 5751 5746 5741 5736 5731 5725 5720 5714 5708 5702 5697 5692 5688 5684 5681 5678 5675 5672 5668 5663 5659 5655 5652 5649 5648 5645 5642 5639 5635 5631 5627 5623 5619 5615 5612 5609 5606 5602 5599 5595 5591 5585
5749 5744 5739 5735 5730 5725 5719 5713 5707 5701 5695 5690 5685 5680 5677 5674 5671 5668 5665 5661 5658 5653 5648 5645 5643 5640 5638 5634 5631 5628 5624 5620 5615 5610 5605 5602 5598 5596 5593 5591 5587 5584 5580
5741 5736 5732 5727 5723 5718 5712 5706 5701 5694 5689 5684 5678 5673 5669 5666 5664 5661 5658 5654 5651 5646 5642 5640 5637 5633 5630 5626 5623 5620 5616 5611 5606 5601 5596 5593 5591 5588 5585 5582 5579 5576 5572
5734 5729 5724 5719 5714 5709 5705 5700 5694 5688 5683 5678 5673 5668 5664 5660 5656 5653 5650 5646 5643 5639 5635 5632 5629 5625 5621 5618 5614 5611 5607 5603 5598 5593 5589 5586 5583 5580 5576 5573 5569 5565 5561
5727 5721 5716 5711 5705 5700 5695 5690 5687 5683 5680 5675 5670 5666 5660 5655 5652 5649 5644 5640 5636 5632 5627 5623 5619 5615 5611 5607 5604 5601 5598 5594 5590 5586 5582 5579 5575 5571 5567 5564 5560 5556 5551
5718 5713 5709 5703 5697 5692 5686 5680 5678 5675 5673 5670 5666 5662 5657 5653 5648 5643 5639 5635 5630 5626 5620 5615 5610 5606 5603 5599 5596 5592 5589 5586 5582 5579 5575 5571 5567 5563 5559 5555 5551 5547 5542
5712 5706 5701 5696 5690 5684 5679 5674 5668 5665 5664 5661 5658 5654 5651 5646 5641 5637 5632 5628 5623 5618 5612 5608 5603 5600 5596 5593 5589 5585 5582 5579 5575 5571 5567 5563 5560 5556 5552 5548 5544 5540 5535
5704 5699 5694 5689 5684 5679 5673 5669 5664 5659 5655 5651 5649 5646 5642 5638 5634 5629 5624 5619 5614 5609 5606 5602 5598 5594 5591 5587 5583 5579 5575 5572 5568 5564 5560 5556 5553 5548 5544 5540 5537 5533 5529
5695 5691 5686 5681 5677 5672 5667 5662 5657 5653 5648 5644 5639 5636 5633 5629 5625 5620 5616 5611 5607 5603 5600 5596 5593 5589 5585 5581 5577 5573 5569 5565 5561 5557 5553 5549 5545 5542 5538 5534 5530 5527 5523
5687 5684 5679 5674 5668 5664 5659 5654 5649 5645 5640 5636 5633 5629 5625 5620 5615 5612 5608 5605 5601 5598 5594 5591 5588 5584 5580 5576 5571 5567 5563 5559 5555 5551 5547 5543 5539 5535 5532 5528 5525 5520 5516
5678 5674 5670 5666 5661 5657 5653 5648 5644 5640 5635 5631 5628 5625 5620 5614 5610 5607 5603 5599 5596 5592 5589 5585 5582 5578 5574 5570 5565 5561 5557 5553 5549 5545 5541 5537 5533 5530 5526 5522 5519 5515 5511
5669 5665 5660 5656 5653 5649 5645 5641 5637 5633 5629 5625 5621 5617 5611 5607 5603 5600 5596 5593 5590 5587 5584 5580 5576 5572 5569 5564 5560 5555 5551 5546 5542 5539 5535 5531 5527 5524 5521 5517 5513 5509 5505
5659 5655 5650 5647 5643 5640 5636 5633 5629 5625 5621 5618 5614 5609 5604 5599 5596 5593 5590 5587 5584 5581 5578 5574 5570 5566 5562 5558 5554 5549 5544 5540 5537 5533 5529 5525 5521 5517 5514 5510 5507 5503 5499
5649 5645 5641 5637 5633 5630 5627 5623 5620 5617 5614 5610 5606 5602 5598 5593 5590 5587 5584 5581 5578 5575 5571 5567 5563 5559 5555 5550 5546 5542 5538 5535 5531 5527 5523 5519 5515 5511 5507 5503 5500 5497 5493
5639 5635 5631 5628 5625 5621 5618 5615 5612 5609 5606 5603 5599 5595 5591 5587 5583 5581 5578 5575 5571 5568 5564 5560 5556 5552 5547 5543 5539 5535 5531 5528 5524 5521 5517 5513 5509 5505 5501 5497 5493 5490 5486
5629 5626 5622 5619 5616 5613 5610 5606 5604 5601 5598 5595 5592 5589 5585 5581 5577 5574 5571 5568 5564 5561 5557 5553 5549 5545 5540 5536 5532 5528 5525 5521 5518 5514 5510 5506 5502 5497 5494 5490 5487 5483 5480